Buckland, AK

10:45 AM AKST on February 20, 2018 (GMT -0900)
Buckland

Weather History for PABL - October, 2012

Change the Weather History Date:

Monday, October 1, 2012

  Actual Average (PASK) Record (PASK)
Temperature  
Mean Temperature 32 °F -  
Max Temperature 39 °F 36 °F 55 °F (2003)
Min Temperature 24 °F 27 °F 19 °F (2015)
Degree Days  
Heating Degree Days 34    
Moisture  
Dew Point 23 °F    
Average Humidity 75    
Maximum Humidity 86    
Minimum Humidity 60    
Precipitation  
Precipitation 0.00 in - - ()
Sea Level Pressure  
Sea Level Pressure 29.96 in    
Wind  
Wind Speed 8 mph (SE)    
Max Wind Speed 24 mph    
Max Gust Speed 31 mph    
Visibility 10 miles    
Events      
Averages and records for this station are not official NWS values.
T = Trace of Precipitation, MM = Missing Value Source: NWS Daily Summary

Daily Weather History Graph

Daily Weather History Graph

Search for Another Location

Airport or City:

Trip Planner

Search our weather history database for the weather conditions in past years. The results will help you decide how hot, cold, wet, or windy it might be!

Date:

Astronomy

Oct. 01, 2012 Rise Set
Actual Time 8:57 AM AKDT 8:08 PM AKDT
Civil Twilight 8:06 AM AKDT 8:59 PM AKDT
Nautical Twilight 7:06 AM AKDT 9:59 PM AKDT
Astronomical Twilight 5:59 AM AKDT 11:05 PM AKDT
Moon 7:39 PM AKDT (10/1) 11:45 AM AKDT (10/1)
Length of Visible Light 12h 52m
Length of Day
11h 11m
Full, 97% of the Moon is Illuminated
Oct 1
Full
Oct 7
Last Quarter
Oct 15
New
Oct 21
First Quarter
Oct 29
Full

Hourly Weather History & Observations

Time (AKDT) Temp. Windchill Dew Point Humidity Pressure Visibility Wind Dir Wind Speed Gust Speed Precip Events Conditions
12:16 AM 28.4 °F 22.2 °F 21.2 °F 74% 30.01 in 10.0 mi ESE 5.8 mph - N/A   Scattered Clouds
12:36 AM 26.6 °F 20.0 °F 21.2 °F 80% 30.01 in 10.0 mi ESE 5.8 mph - N/A   Clear
12:56 AM 26.6 °F 21.2 °F 21.2 °F 80% 30.01 in 10.0 mi SE 4.6 mph - N/A   Clear
1:16 AM 26.6 °F 20.0 °F 21.2 °F 80% 30.02 in 10.0 mi South 5.8 mph - N/A   Clear
1:56 AM 24.8 °F 20.5 °F 19.4 °F 80% 30.01 in 10.0 mi ESE 3.5 mph - N/A   Clear
2:16 AM 24.8 °F - 21.2 °F 86% 30.01 in 10.0 mi Calm Calm - N/A   Partly Cloudy
2:36 AM 24.8 °F - 21.2 °F 86% 30.02 in 10.0 mi Calm Calm - N/A   Mostly Cloudy
2:56 AM 24.8 °F - 19.4 °F 80% 30.01 in 10.0 mi Calm Calm - N/A   Overcast
3:16 AM 24.8 °F - 21.2 °F 86% 30.01 in 10.0 mi Calm Calm - N/A   Overcast
3:36 AM 24.8 °F 20.5 °F 21.2 °F 86% 30.01 in 10.0 mi WSW 3.5 mph - N/A   Overcast
3:56 AM 26.6 °F 22.6 °F 23.0 °F 86% 30.00 in 10.0 mi SSW 3.5 mph - N/A   Overcast
4:16 AM 26.6 °F 22.6 °F 23.0 °F 86% 30.00 in 10.0 mi South 3.5 mph - N/A   Overcast
4:36 AM 26.6 °F 21.2 °F 23.0 °F 86% 30.00 in 10.0 mi South 4.6 mph - N/A   Overcast
4:56 AM 26.6 °F 21.2 °F 23.0 °F 86% 30.00 in 10.0 mi South 4.6 mph - N/A   Overcast
5:16 AM 28.4 °F 21.2 °F 23.0 °F 80% 30.00 in 10.0 mi South 6.9 mph - N/A   Overcast
5:36 AM 30.2 °F 25.4 °F 24.8 °F 80% 30.00 in 10.0 mi SSE 4.6 mph - N/A   Overcast
5:56 AM 30.2 °F 23.4 °F 23.0 °F 75% 30.00 in 10.0 mi ESE 6.9 mph - N/A   Overcast
6:16 AM 30.2 °F 21.9 °F 23.0 °F 75% 30.00 in 10.0 mi ESE 9.2 mph - N/A   Overcast
6:36 AM 30.2 °F 20.8 °F 23.0 °F 75% 29.99 in 10.0 mi ESE 11.5 mph 17.3 mph N/A   Overcast
6:56 AM 30.2 °F 20.2 °F 23.0 °F 75% 29.99 in 10.0 mi East 12.7 mph 17.3 mph N/A   Overcast
7:16 AM 30.2 °F 20.2 °F 23.0 °F 75% 29.99 in 10.0 mi East 12.7 mph - N/A   Overcast
7:36 AM 30.2 °F 20.8 °F 23.0 °F 75% 29.99 in 10.0 mi East 11.5 mph 18.4 mph N/A   Overcast
7:56 AM 30.2 °F 20.8 °F 21.2 °F 69% 29.99 in 10.0 mi ESE 11.5 mph 17.3 mph N/A   Mostly Cloudy
8:16 AM 28.4 °F 19.1 °F 21.2 °F 74% 29.99 in 10.0 mi ESE 10.4 mph - N/A   Partly Cloudy
8:36 AM 28.4 °F 19.1 °F 19.4 °F 69% 29.99 in 10.0 mi SE 10.4 mph - N/A   Partly Cloudy
8:56 AM 26.6 °F 18.2 °F 19.4 °F 74% 29.98 in 10.0 mi SE 8.1 mph - N/A   Partly Cloudy
9:16 AM 26.6 °F 17.5 °F 19.4 °F 74% 29.98 in 10.0 mi SE 9.2 mph - N/A   Clear
9:36 AM 26.6 °F 19.1 °F 21.2 °F 80% 29.98 in 10.0 mi South 6.9 mph - N/A   Clear
9:56 AM 26.6 °F 19.1 °F 21.2 °F 80% 29.98 in 10.0 mi South 6.9 mph - N/A   Clear
10:16 AM 26.6 °F 18.2 °F 21.2 °F 80% 29.97 in 10.0 mi SSE 8.1 mph - N/A   Clear
10:36 AM 28.4 °F 21.2 °F 21.2 °F 74% 29.97 in 10.0 mi SSE 6.9 mph - N/A   Clear
11:16 AM 30.2 °F 20.8 °F 23.0 °F 75% 29.96 in 10.0 mi SE 11.5 mph - N/A   Clear
11:56 AM 32.0 °F 22.1 °F 24.8 °F 75% 29.95 in 10.0 mi ESE 13.8 mph 21.9 mph N/A   Clear
12:16 PM 33.8 °F 23.9 °F 23.0 °F 65% 29.94 in 10.0 mi ESE 15.0 mph 23.0 mph N/A   Clear
12:36 PM 33.8 °F 23.5 °F 24.8 °F 70% 29.93 in 10.0 mi ESE 16.1 mph 24.2 mph N/A   Clear
12:56 PM 33.8 °F 23.5 °F 24.8 °F 70% 29.93 in 10.0 mi ESE 16.1 mph 24.2 mph N/A   Clear
1:16 PM 35.6 °F 25.9 °F 24.8 °F 65% 29.93 in 10.0 mi ESE 16.1 mph 24.2 mph N/A   Clear
1:36 PM 35.6 °F 25.9 °F 24.8 °F 65% 29.92 in 10.0 mi ESE 16.1 mph 26.5 mph N/A   Scattered Clouds
2:16 PM 37.4 °F 27.8 °F 24.8 °F 60% 29.90 in 10.0 mi ESE 17.3 mph 24.2 mph N/A   Scattered Clouds
2:36 PM 37.4 °F 27.5 °F 24.8 °F 60% 29.90 in 10.0 mi ESE 18.4 mph 24.2 mph N/A   Mostly Cloudy
4:16 PM 39.2 °F 30.2 °F 26.6 °F 61% 29.88 in 10.0 mi ESE 17.3 mph 27.6 mph N/A   Mostly Cloudy
4:36 PM 37.4 °F 27.5 °F 26.6 °F 65% 29.87 in 10.0 mi East 18.4 mph 25.3 mph N/A   Mostly Cloudy
4:56 PM 39.2 °F 30.5 °F 26.6 °F 61% 29.87 in 10.0 mi ESE 16.1 mph 25.3 mph N/A   Overcast
5:16 PM 39.2 °F 30.2 °F 28.4 °F 65% 29.87 in 10.0 mi ESE 17.3 mph 28.8 mph N/A   Overcast
5:36 PM 39.2 °F 29.3 °F 28.4 °F 65% 29.87 in 10.0 mi ESE 20.7 mph 31.1 mph N/A   Overcast
5:56 PM 37.4 °F 26.4 °F 28.4 °F 70% 29.87 in 10.0 mi ESE 23.0 mph 31.1 mph N/A   Overcast
6:16 PM 37.4 °F 26.1 °F 28.4 °F 70% 29.87 in 10.0 mi ESE 24.2 mph 29.9 mph N/A   Overcast
6:36 PM 37.4 °F 26.6 °F 28.4 °F 70% 29.86 in 10.0 mi ESE 21.9 mph 28.8 mph N/A   Overcast
6:56 PM 37.4 °F 27.5 °F 28.4 °F 70% 29.86 in 10.0 mi ESE 18.4 mph 25.3 mph N/A   Overcast
7:16 PM 35.6 °F 26.2 °F 30.2 °F 81% 29.86 in 10.0 mi ESE 15.0 mph 24.2 mph N/A   Overcast